User: anonymous   Login
Location: Irma
(52.9170°N, 111.2330°W)
Time: 13:56:34
(UTC-06:00)
Language:

Meteor 1-24 Rocket - Orbit

View from above orbital plane
View from above orbital plane
View from above satellite
View from above satellite

Ground track
Ground track

The orbit data is extracted from the following two-line orbital elements,

1 08800U 76032B   16239.30913366 -.00000113  00000-0 -67562-4 0  9993
2 08800  81.2533 144.2074 0094648 300.5563  58.6293 14.10076692 76625
Epoch (UTC): 26 August 2016 07:25:09
Eccentricity: 0.0094648
inclination: 81.2533°
perigee height: 790 km
apogee height: 927 km
right ascension of ascending node: 144.2074°
argument of perigee: 300.5563°
revolutions per day: 14.10076692
mean anomaly at epoch: 58.6293°
orbit number at epoch: 7662

The dashed part of the orbit path shows where the satellite is in the earth's shadow,  

DLR